Fehn Calais — V2CI3 — position and weather

sailwx.info

Track history (hours):
 
Tides and Currents Weather Stations Pressure Air Temp Water Temp Dewpoint Dewpoint Depression Visibility Wind Speed Wind Dir Waves Ship Positions

Fehn Calais

Last reported at 2014-Oct-24 10:33 UTC. Time now 2014-Oct-24 11:20 UTC.
Position N 37°55' W 009°51'.

Length 82 m; draft 3.6 m.

Type: Ship. MMSI: 305009000.

Date/timePositionNaut miles runAvg speedWind from/ knotsBaromVisibWave heightAir tempDewpointWater temp
2014-Oct-24 10:33N 37°55' W 009°51'9 9.0
2014-Oct-24 09:33N 38°04' W 009°54'9 9.1
2014-Oct-24 08:33N 38°13' W 009°57'9 9.3
2014-Oct-24 07:33N 38°22' W 009°59'10 9.3
2014-Oct-24 06:32N 38°31' W 010°02'10 9.2
2014-Oct-24 05:25N 38°41' W 010°05'  
2014-Oct-19 03:26N 38°49' W 009°50'8 7.9
2014-Oct-19 02:24N 38°40' W 009°49'7 7.9
2014-Oct-19 01:31N 38°34' W 009°47'8 8.1
2014-Oct-19 00:32N 38°26' W 009°45'9 8.4
2014-Oct-18 23:31N 38°18' W 009°43'11 8.7
2014-Oct-18 22:14N 38°07' W 009°39'6 8.8
2014-Oct-18 21:33N 38°01' W 009°38'9 8.7
2014-Oct-18 20:33N 37°52' W 009°35'9 8.8
2014-Oct-18 19:33N 37°44' W 009°33'9 8.7
2014-Oct-18 18:33N 37°35' W 009°31'  
Track history (hours):
 
Tides and Currents Weather Stations Pressure Air Temp Water Temp Dewpoint Dewpoint Depression Visibility Wind Speed Wind Dir Waves Ship Positions

Fehn Calais

Last reported at 2014-Oct-24 10:33 UTC. Time now 2014-Oct-24 11:20 UTC.
Position N 37°55' W 009°51'.

Length 82 m; draft 3.6 m.

Type: Ship. MMSI: 305009000.

Date/timePositionNaut miles runAvg speedWind from/ knotsBaromVisibWave heightAir tempDewpointWater temp
2014-Oct-24 10:33N 37°55' W 009°51'9 9.0
2014-Oct-24 09:33N 38°04' W 009°54'9 9.1
2014-Oct-24 08:33N 38°13' W 009°57'9 9.3
2014-Oct-24 07:33N 38°22' W 009°59'10 9.3
2014-Oct-24 06:32N 38°31' W 010°02'10 9.2
2014-Oct-24 05:25N 38°41' W 010°05'  
2014-Oct-19 03:26N 38°49' W 009°50'8 7.9
2014-Oct-19 02:24N 38°40' W 009°49'7 7.9
2014-Oct-19 01:31N 38°34' W 009°47'8 8.1
2014-Oct-19 00:32N 38°26' W 009°45'9 8.4
2014-Oct-18 23:31N 38°18' W 009°43'11 8.7
2014-Oct-18 22:14N 38°07' W 009°39'6 8.8
2014-Oct-18 21:33N 38°01' W 009°38'9 8.7
2014-Oct-18 20:33N 37°52' W 009°35'9 8.8
2014-Oct-18 19:33N 37°44' W 009°33'9 8.7
2014-Oct-18 18:33N 37°35' W 009°31'  

Dump ship's entire track history